Location: Auckland
(36.8670°S, 174.7670°E)
Time: 21:43:22
(UTC+13:00)

Cosmos 1666 Rocket - Pass Details

Date: 24 January 2019
Orbit: 605 x 632 km, 82.5° (Epoch: 18 October)

Event Time Altitude Azimuth Distance (km) Brightness Sun altitude
Rises 21:01:42 0° 181° (S) 2,960 7.5 -5.0°
Reaches altitude 10° 21:04:04 10° 174° (S) 2,041 6.5 -5.4°
Maximum altitude 21:08:25 46° 100° (E) 855 4.0 -6.2°
Drops below altitude 10° 21:12:42 10° 26° (NNE) 1,999 5.7 -6.9°
Enters shadow 21:14:23 - 21° (NNE) 2,657 6.3 -7.2°
